weather.gov     
National Weather Service

Regional Weather Roundup
NWS Homepage
This page is being discontinued on March 12, 2014.
The same data is available at this site. Please update your bookmarks.
Thank you, and we apologize for the inconvenience.
Please send an email to SR-SRH.Webmaster@noaa.gov with any concerns.


Current Version
Previous Version:    01  02  03  04  05  06  07  08  09  10  11  12  13  14  15  16  17  18  19  20  21  22  23  24  25  26  
[Printable]
006
ASUS45 KREV 011910
RWRNV
NEVADA REGIONAL WEATHER ROUNDUP
NATIONAL WEATHER SERVICE RENO NV
1200 PM PDT MON SEP 01 2014

NOTE: "FAIR" INDICATES FEW OR NO CLOUDS BELOW 12,000 FEET WITH NO
SIGNIFICANT WEATHER AND/OR OBSTRUCTIONS TO VISIBILITY.

NVZ001-003-004-012000-
WESTERN NEVADA

CITY           SKY/WX    TMP DP  RH WIND       PRES   REMARKS
RENO           SUNNY     80  34  19 E7        30.07F
CARSON CITY    FAIR      77  32  19 N3        30.09F
MINDEN           N/A    N/A N/A N/A MISG        N/A
SLIDE MTN        N/A     61  37  41 SE1         N/A
PYRAMID LAKE     N/A     72 N/A N/A NE7         N/A
FALLON         SUNNY     80  32  17 CALM      30.05F
LOVELOCK       SUNNY     80  35  19 VRB3      30.05F
HAWTHORNE      SUNNY     79  32  18 NW5       30.06F
$$

NVZ002-CAZ072-073-012000-
NORTHERN AND CENTRAL SIERRA

CITY           SKY/WX    TMP DP  RH WIND       PRES   REMARKS
S. LAKE TAHOE  SUNNY     75  40  28 E6        30.15F
TRUCKEE        SUNNY     73  36  25 CALM      30.14F
SQUAW VLY 8000 NOT AVBL
SUSANVILLE     SUNNY     75  32  20 NE7       30.08F
BLUE CANYON    SUNNY     78  30  17 S8G16     30.10F
MAMMOTH LAKES  FAIR      79  25  13 SE7       30.20F
BRIDGEPORT     FAIR      80  28  15 CALM      30.15F
$$

NVZ030-031-036-012000-
NORTHERN NEVADA

CITY           SKY/WX    TMP DP  RH WIND       PRES   REMARKS
ELKO           SUNNY     76  31  19 VRB6      30.12F
WINNEMUCCA     SUNNY     77  31  18 MISG      30.09F
WENDOVER       SUNNY     75  37  25 SE8       30.10F
$$

NVZ035-037-012000-
CENTRAL NEVADA

CITY           SKY/WX    TMP DP  RH WIND       PRES   REMARKS
ELY            SUNNY     76  32  20 NE6       30.17F
EUREKA           N/A     76  32  20 CALM      30.15F
$$

NVZ013-014-012000-
SOUTH CENTRAL NEVADA

CITY           SKY/WX    TMP DP  RH WIND       PRES   REMARKS
TONOPAH        SUNNY     84  27  12 NE6       30.10F
$$

NVZ017-020-022-012000-
SOUTHERN NEVADA

CITY           SKY/WX    TMP DP  RH WIND       PRES   REMARKS
LAS VEGAS      SUNNY     98  32  10 CALM      29.82F
N. LAS VEGAS   SUNNY     95  30  10 SE8       29.85F
NELLIS AFB     SUNNY     97  37  12 E8        29.83F
HENDERSON      SUNNY     99  34  10 NE7       29.88F
MERCURY        SUNNY     94  23   8 S7        29.93F
$$




U.S. Dept. of Commerce
NOAA National Weather Service
1325 East West Highway
Silver Spring, MD 20910
E-mail: w-nws.webmaster@noaa.gov
Page last modified: May 16, 2007
NATIONAL WEATHER SERVICE: for Safety, for Work, for Fun - FOR LIFE